Location: Newark
(52.3500°N, 175.9667°E)
Time: 20:34:56
(UTC+00:00)

Transit 4A - Pass Details

Date: 23 April 2021
Orbit: 871 x 974 km, 66.8° (Epoch: 16 May)

Event Time Altitude Azimuth Distance (km) Brightness Sun altitude
Rises 20:36:57 0° 315° (NW) 3,514 10.4 31.5°
Reaches altitude 10° 20:39:52 10° 303° (WNW) 2,556 9.8 31.9°
Maximum altitude 20:44:32 25° 251° (WSW) 1,699 9.1 32.6°
Drops below altitude 10° 20:49:08 10° 198° (SSW) 2,515 10.3 33.2°
Sets 20:52:00 0° 185° (S) 3,446 11.1 33.6°
